Location: Unspecified
(0.0000°N, 0.0000°E)
Time: 09:19:43
(UTC+00:00)

Vanguard 2 - Pass Details

Date: 14 December 2017
Orbit: 553 x 2939 km, 32.9° (Epoch: 22 April)

Event Time Altitude Azimuth Distance (km) Brightness Sun altitude
Rises 10:37:05 0° 232° (SW) 6,792 12.4 60.1°
Reaches altitude 10° 10:41:47 10° 230° (SW) 5,711 12.1 60.8°
Maximum altitude 10:58:56 78° 145° (SE) 2,352 12.0 63.1°
Drops below altitude 10° 11:10:06 10° 60° (ENE) 3,916 11.2 64.4°
Sets 11:12:42 0° 59° (ENE) 4,633 11.5 64.6°
